Location: Byhalia Creek
(34.8270°N, 89.8040°W)
Time: 17:01:58
(UTC+00:00)

JB-3 - Pass Details

Date: 22 April 2026
Orbit: 486 x 532 km, 97.3° (Epoch: 9 May)

Event Time Altitude Azimuth Distance (km) Brightness Sun altitude
Exits shadow 09:50:16 43° 260° (W) 697 4.4 -17.6°
Maximum altitude 09:50:16 43° 261° (W) 697 4.4 -17.6°
Drops below altitude 10° 09:53:43 10° 334° (NNW) 1,675 6.8 -17.0°
Sets 09:55:51 0° 341° (NNW) 2,559 7.9 -16.6°
